Regional Weather Roundup
Issued by NWS Green Bay, WI

Home | Current Version | Previous Version | Text Only | Print | Product List | Glossary On
Versions: 1 2 3 4 5 6 7 8 9 10 11 12 13 14 15 16 17 18 19 20 21 22 23 24 25 26 27 28 29 30 31 32 33 34 35 36 37 38 39 40 41 42 43 44 45 46 47 48 49 50
000
ASUS43 KGRB 011000
RWRGRB

NORTH-CENTRAL AND NORTHEAST WISCONSIN REGIONAL WEATHER ROUNDUP
NATIONAL WEATHER SERVICE GREEN BAY WI
500 AM CDT SUN MAY 01 2016

WIZ005-009-010>012-018-019-011100-
NORTH CENTRAL WISCONSIN

CITY           SKY/WX    TMP DP  RH WIND       PRES   REMARKS
IRONWOOD         N/A     34  32  93 CALM      30.16S
MANITOWISH WTR NOT AVBL
ARBOR VITAE    NOT AVBL
EAGLE RIVER    NOT AVBL
LAND O LAKES   NOT AVBL
RHINELANDER    CLOUDY    36  32  85 N5        30.12S
PHILLIPS       NOT AVBL
ANTIGO         NOT AVBL
TOMAHAWK       NOT AVBL
MERRILL        NOT AVBL
$$

WIZ013-073-011100-
NORTHEAST WISCONSIN

CITY           SKY/WX    TMP DP  RH WIND       PRES   REMARKS
IRON MOUNTAIN  PTCLDY    38  33  82 N5        30.10R
MARINETTE      CLOUDY    43  32  65 NE5       30.09R
$$

WIZ017-030-035>037-045-011100-
CENTRAL WISCONSIN

CITY           SKY/WX    TMP DP  RH WIND       PRES   REMARKS
MEDFORD        NOT AVBL
WAUSAU         CLOUDY    45  32  60 N5        30.08R
MOSINEE        NOT AVBL
MARSHFIELD     CLOUDY    44  31  60 NE8       30.07S
WISC RAPIDS    CLOUDY    45  30  55 NE6       30.08S
STEVENS POINT  NOT AVBL
WAUPACA        NOT AVBL
SHAWANO        NOT AVBL
CLINTONVILLE   NOT AVBL
WAUTOMA        CLOUDY    42  35  76 NE8       30.07
$$

WIZ038-039-048-051-011100-
FOX VALLEY

CITY           SKY/WX    TMP DP  RH WIND       PRES   REMARKS
NWS GREEN BAY  LGT RAIN  43  38  82 N9        30.07R
APPLETON       NOT AVBL
OSHKOSH        LGT RAIN  43  37  79 N14       30.04S
FOND DU LAC    CLOUDY    44  38  79 NE14      30.03S
$$

WIZ022-050-052-011100-
EAST CENTRAL WISCONSIN

CITY           SKY/WX    TMP DP  RH WIND       PRES   REMARKS
EPHRAIM        NOT AVBL
STURGEON BAY   CLOUDY    43  32  65 NE6       30.10R
MANITOWOC      NOT AVBL
SHEBOYGAN      CLOUDY    41  38  89 N10       30.02S
$$

LMZ563-521-522-541>543-011100-
LAKESHORE

STATION/POSITION TIME  TEMP    WIND        PRES    VSBY  WAVE
                       AIR SEA DIR/SP/G                  HT/PER
                 (UTC) (F)     (DEG/KT/KT) (MB)    (MI)  (FT/S)
SHEBOYGAN LKSHOR 0900   42      10/ 18/ 20 1017.4R
KEWAUNEE LKSHORE 0900   42      20/  8/ 14 1017.0R
NORTHPORT PIER   0900   42      30/  8/ 11 1018.3F
N MID LAKE BUOY  0850   40 39   20/ 12/ 14 1018.3F         1/ 4
CHAMBERS ISLAND  0900   41     360/ 12/ 14 1018.6R
MENOMINEE LKSHOR 0900   44     360/ 10/ 12 1017.2R
$$



USA.gov is the U.S. government's official web portal to all federal, state and local government web resources and services.